Terug naar catalogus

STARLINK-31390

ActiefCommunicatieVLEO
NORAD 58937·PAYLOAD·🇺🇸 United States

Gelanceerd Feb 10, 2024 vanaf Vandenberg Space Force Base

Loading…

Volgende Passages (komende 24 uur)

TLE

VersSource: CelesTrak SupGP

Epoch: Sep 15, 2026, 03:14 UTC

1 58937C 24027G   26258.13520833  .00026230  00000+0  77509-3 0  2586
2 58937  53.1570 148.7784 0001247  85.1374 355.0319 15.34372191    19

Volg STARLINK-31390 in realtime met AllMySat

Download on the App Store